Weather History for Wheeling, WV

Change the Weather History Date:

Sunday, June 23, 2013

  Actual Average Record
Temperature  
Mean Temperature 78 °F 70 °F  
Max Temperature 86 °F 80 °F 87 °F (1952)
Min Temperature 69 °F 60 °F 47 °F (2007)
Degree Days  
Heating Degree Days 0 0  
Month to date heating degree days 21 38  
Since 1 June heating degree days 21 38  
Since 1 July heating degree days 5465 5587  
Cooling Degree Days 13    
Month to date cooling degree days 83  
Year to date cooling degree days 189  
Since 1 June cooling degree days 83  
Growing Degree Days 26 (Base 50)    
Moisture  
Dew Point 66 °F    
Average Humidity 71    
Maximum Humidity 90    
Minimum Humidity 51    
Precipitation  
Precipitation 0.00 in 0.14 in 1.47 in (1985)
Month to date precipitation 1.40 3.88  
Sea Level Pressure  
Sea Level Pressure 30.12 in    
Wind  
Wind Speed 6 mph (SSW)    
Max Wind Speed 12 mph    
Max Gust Speed 18 mph    
Visibility 10 miles    
Events      
T = Trace of Precipitation, MM = Missing Value Source: NWS Daily Summary

Daily Weather History Graph

Daily Weather History Graph

Search for Another Location

Airport:

Trip Planner

Search our weather history database for the weather conditions in past years. The results will help you decide how hot, cold, wet, or windy it might be!

Date:

Astronomy

Jun. 23, 2013 Rise Set
Actual Time 5:53 AM EDT 8:55 PM EDT
Civil Twilight 5:20 AM EDT 9:28 PM EDT
Nautical Twilight 4:38 AM EDT 10:10 PM EDT
Astronomical Twilight 3:49 AM EDT 10:59 PM EDT
Moon 9:06 PM EDT (6/23) 6:09 AM EDT (6/23)
Length of Visible Light 16h 07m
Length of Day
15h 01m
Full, 100% of the Moon is Illuminated
Jun 23
Full
Jun 30
Last Quarter
Jul 8
New
Jul 15
First Quarter
Jul 22
Full

Hourly Weather History & Observations

Time (EDT) Temp. Heat Index Dew Point Humidity Pressure Visibility Wind Dir Wind Speed Gust Speed Precip Events Conditions
12:53 AM 71.1 °F - 66.9 °F 87% 30.13 in 10.0 mi SSE 4.6 mph - N/A   Clear
1:53 AM 71.1 °F - 66.0 °F 84% 30.12 in 10.0 mi SSE 4.6 mph - N/A   Clear
2:53 AM 72.0 °F - 66.0 °F 81% 30.11 in 10.0 mi South 4.6 mph - N/A   Clear
3:53 AM 70.0 °F - 66.0 °F 87% 30.11 in 9.0 mi South 6.9 mph - N/A   Clear
4:53 AM 69.1 °F - 66.0 °F 90% 30.12 in 9.0 mi South 5.8 mph - N/A   Clear
5:53 AM 70.0 °F - 66.0 °F 87% 30.14 in 10.0 mi SSE 5.8 mph - N/A   Clear
6:53 AM 70.0 °F - 66.0 °F 87% 30.15 in 8.0 mi South 4.6 mph - N/A   Scattered Clouds
7:53 AM 72.0 °F - 66.9 °F 84% 30.16 in 8.0 mi South 4.6 mph - N/A   Mostly Cloudy
8:53 AM 75.0 °F - 68.0 °F 79% 30.17 in 10.0 mi SW 3.5 mph - N/A   Clear
9:53 AM 77.0 °F - 68.0 °F 74% 30.16 in 10.0 mi SSW 4.6 mph - N/A   Clear
10:53 AM 81.0 °F 83.8 °F 68.0 °F 65% 30.17 in 10.0 mi WSW 5.8 mph - N/A   Clear
11:53 AM 82.0 °F 84.9 °F 68.0 °F 62% 30.15 in 10.0 mi SSW 6.9 mph - N/A   Clear
12:53 PM 82.9 °F 85.8 °F 68.0 °F 60% 30.14 in 10.0 mi South 8.1 mph - N/A   Partly Cloudy
1:53 PM 82.9 °F 84.4 °F 64.0 °F 53% 30.13 in 10.0 mi SSW 8.1 mph - N/A   Partly Cloudy
2:53 PM 82.0 °F 83.8 °F 64.9 °F 56% 30.11 in 10.0 mi SSW 9.2 mph - N/A   Partly Cloudy
3:53 PM 82.9 °F 84.6 °F 64.9 °F 54% 30.10 in 10.0 mi WSW 5.8 mph - N/A   Clear
4:53 PM 84.0 °F 86.3 °F 66.0 °F 55% 30.09 in 10.0 mi WSW 6.9 mph - N/A   Clear
5:53 PM 84.9 °F 86.6 °F 64.9 °F 51% 30.07 in 10.0 mi SSW 5.8 mph - N/A   Clear
6:53 PM 84.0 °F 85.4 °F 64.0 °F 51% 30.06 in 10.0 mi WSW 9.2 mph - N/A   Clear
7:53 PM 82.0 °F 83.4 °F 64.0 °F 54% 30.07 in 10.0 mi SW 4.6 mph - N/A   Clear
8:53 PM 79.0 °F - 64.0 °F 60% 30.09 in 10.0 mi SW 4.6 mph - N/A   Clear
9:53 PM 77.0 °F - 63.0 °F 62% 30.10 in 10.0 mi SSW 5.8 mph - N/A   Clear
10:53 PM 75.9 °F - 64.0 °F 67% 30.12 in 10.0 mi SSW 5.8 mph - N/A   Clear
11:53 PM 75.0 °F - 64.9 °F 71% 30.12 in 10.0 mi South 4.6 mph - N/A   Clear